STAR ONE C2

Last updated on Sun Apr 12 2026 00:02:51 GMT+0000 (Coordinated Universal Time)

1 32768U 08018B 26101.50777734 -.00000274 00000+0 00000+0 0 9995 2 32768 1.0694 82.9960 0002802 301.2605 293.2819 1.00270413 65981
UTC large
Height (km)
Speed (km/s)
/
Latitude / Longitude
Inclination (degrees)
Orbital Period (minutes)
Azimuth
Elevation
Range (km)
Doppler Factor

Next 0 passes for location: London (51.5072 / 0.1276)

Sorry there are no passes over London.
STAR ONE C2